GFSFLT1_700_rhum_000.txt.gz
RH
6 6 6 8 9 9 9 9 9 8 10 10 11 11 11 11 12 11 11 13 16 18 18 18 19 18 16 14 12 10 8 7 6
6 6 7 8 8 9 9 9 8 9 10 11 12 12 11 12 12 12 12 13 15 18 18 18 19 20 19 16 14 12 11 9 8
6 6 7 7 8 9 10 9 9 10 11 12 12 12 12 12 14 14 14 14 15 17 18 19 19 20 20 19 17 15 13 12 11
5 6 7 8 9 10 10 9 10 11 11 12 13 13 13 13 15 15 15 15 14 16 18 19 19 20 21 21 20 18 18 16 15
9 9 10 11 12 12 11 12 12 12 12 13 14 14 13 13 14 16 16 16 16 16 18 19 20 21 22 22 22 22 21 21 21
14 14 15 15 14 14 13 13 14 14 14 14 15 15 15 14 14 15 17 17 18 18 19 20 22 22 23 23 23 24 24 24 24
18 19 20 20 21 21 19 18 16 16 17 16 16 17 17 17 16 16 17 18 19 20 21 21 22 23 23 24 24 24 25 25 26
25 22 19 18 18 20 21 21 17 17 18 18 17 17 18 19 20 20 20 19 19 20 20 21 22 23 24 25 25 25 26 26 27
44 47 49 47 38 31 28 28 25 21 19 17 18 18 18 20 21 22 23 24 24 24 23 23 22 22 24 25 26 26 27 27 28
53 53 52 56 58 57 57 55 51 44 46 45 37 30 24 18 16 18 21 22 23 24 25 26 26 26 25 24 24 26 27 28 28
53 55 56 56 56 55 55 53 52 50 51 48 47 48 47 39 30 17 15 18 21 25 27 28 29 29 29 30 42 28 27 27 28
49 51 52 54 54 54 52 51 51 50 50 50 50 46 46 48 44 34 24 19 23 26 28 29 29 30 32 32 32 45 61 64 49
46 46 45 45 46 46 48 50 52 51 49 50 51 43 41 40 39 40 37 31 27 27 30 31 30 29 30 32 34 34 35 38 49
40 41 42 43 43 43 43 43 49 47 43 44 46 48 40 38 36 32 31 34 36 33 29 31 34 33 32 32 33 33 35 36 36
29 32 38 42 43 44 44 45 48 46 44 42 40 45 45 43 41 42 41 41 35 37 38 35 32 34 35 34 34 34 34 34 34
36 38 40 44 45 46 46 46 45 44 45 44 37 36 36 37 39 42 39 38 38 38 41 43 41 37 33 35 34 36 36 36 35
33 33 34 33 33 32 32 32 32 32 33 33 34 32 30 30 30 30 31 36 38 36 38 42 44 48 42 38 38 38 38 39 38
39 40 41 41 42 42 42 44 45 45 45 46 49 55 54 75 56 67 57 50 54 66 75 57 40 49 49 44 48 45 42 43 44
38 39 40 41 41 42 42 42 42 42 42 42 46 53 61 73 67 68 79 85 75 59 58 64 72 65 46 43 52 60 52 47 46
47 49 51 52 53 52 51 50 48 46 44 42 41 41 44 50 64 51 54 60 73 72 60 54 65 69 74 92 85 71 68 65 62

GFSFLT1_700_rhum_003.txt.gz
RH
6 6 6 6 8 9 9 9 9 9 9 10 11 12 11 11 12 12 12 12 12 15 17 17 18 19 19 18 15 12 11 9 8
5 5 6 7 8 8 8 9 10 9 9 10 11 12 12 11 12 13 13 12 13 14 16 18 18 19 19 20 19 16 13 12 10
6 6 6 7 7 8 9 10 9 9 10 11 11 12 12 12 13 13 13 13 13 15 17 18 19 19 19 20 21 20 16 15 14
7 7 7 8 8 10 10 10 10 10 11 11 12 13 13 13 13 14 14 15 15 15 17 18 18 19 20 20 21 22 21 18 17
10 11 11 12 12 13 12 12 11 12 12 12 12 13 14 14 13 14 15 16 16 16 16 16 17 18 19 20 21 22 23 22 22
15 15 15 16 16 16 16 15 14 13 14 14 14 14 15 15 15 14 15 16 17 17 17 17 18 18 19 20 22 23 23 24 24
24 23 23 23 22 23 24 24 22 20 19 19 18 18 18 17 17 16 16 16 17 17 18 18 19 19 20 21 22 22 23 24 25
41 43 41 37 32 30 27 27 28 26 23 22 22 23 23 22 20 20 20 19 19 18 18 18 18 19 20 21 22 22 23 24 25
52 53 56 60 61 59 56 50 45 41 38 36 35 32 28 23 19 19 21 22 23 23 23 23 22 22 22 21 22 23 24 25 26
55 58 59 58 56 54 52 54 54 54 54 52 49 45 40 36 29 19 14 15 18 21 23 24 24 25 25 25 25 24 23 24 26
50 50 50 53 53 54 54 54 52 49 50 50 51 51 49 47 38 32 26 20 17 15 16 18 22 25 27 28 28 28 28 42 35
36 36 41 45 46 47 47 47 46 46 49 49 49 49 50 52 53 45 34 35 35 34 27 24 23 24 28 30 31 31 32 32 39
30 34 42 50 54 57 56 52 50 48 47 46 48 48 46 46 47 51 49 42 41 38 37 42 40 33 30 31 34 34 32 34 37
36 38 40 40 44 46 48 50 50 48 47 48 46 45 44 44 42 43 48 48 44 42 43 42 40 44 46 40 37 37 36 35 34
40 40 39 38 37 39 39 38 37 35 34 33 32 32 32 31 30 31 33 36 42 46 49 48 46 46 44 49 52 51 47 48 43
38 38 39 40 41 41 41 40 40 40 41 38 36 34 33 35 36 35 36 37 39 42 46 51 48 48 48 50 54 56 55 52 47
38 38 39 39 39 40 40 40 40 41 42 42 42 39 34 36 35 36 37 39 44 54 69 73 70 80 65 57 60 67 68 60 50
41 44 47 49 50 52 52 53 53 51 50 51 51 47 42 38 38 39 40 44 57 54 50 58 84 97 97 96 94 84 74 73 70
52 55 58 60 61 61 59 58 56 54 53 52 54 54 56 55 41 43 44 44 44 42 43 42 48 62 72 73 85 100 100 94 81
61 63 63 60 56 53 50 49 48 48 48 50 50 50 51 54 55 44 49 49 49 48 46 43 41 42 43 49 57 67 76 99 100

GFSFLT1_700_rhum_006.txt.gz
RH
6 6 7 6 6 8 9 9 9 9 9 9 10 11 12 11 11 12 12 11 11 12 13 16 16 17 18 18 18 15 12 10 9
6 6 6 6 6 8 8 8 9 10 9 9 10 11 12 12 12 12 12 12 12 11 12 15 16 17 17 18 19 19 16 13 11
6 6 6 6 7 7 8 8 9 10 9 9 10 11 12 12 12 12 12 13 13 12 12 13 15 16 17 18 18 19 19 18 14
7 7 8 7 8 8 9 10 11 10 10 10 10 11 12 13 13 13 12 13 13 13 13 13 14 15 16 17 18 18 19 20 19
12 12 12 13 13 13 14 13 14 13 13 13 13 12 12 13 14 14 13 14 14 14 14 14 14 15 16 16 17 18 19 20 21
17 17 18 17 18 19 19 20 20 18 17 17 17 17 16 16 15 15 15 14 15 15 15 16 16 16 16 16 16 17 18 19 20
27 25 23 24 23 23 22 21 21 22 23 21 20 19 19 19 19 18 18 17 16 16 16 16 16 16 17 17 17 17 18 18 19
37 37 38 39 40 41 38 36 36 32 27 24 23 21 19 18 17 18 19 19 19 19 19 18 18 18 18 18 19 19 19 19 20
46 45 45 46 41 40 38 38 38 40 43 47 47 42 37 34 30 24 20 19 16 17 20 22 23 23 22 22 22 21 20 20 21
45 44 42 45 47 46 47 48 50 52 54 53 52 51 50 50 50 49 47 43 36 29 19 15 16 21 23 24 24 25 25 24 23
39 42 44 46 46 46 47 48 48 48 49 48 49 49 49 49 50 49 47 48 51 52 41 37 34 26 19 17 19 23 26 27 27
31 36 43 46 49 53 58 60 60 55 51 50 49 48 46 45 46 48 46 44 44 48 52 47 41 42 42 41 36 26 26 28 30
32 34 35 39 42 45 45 47 47 48 50 48 47 46 42 40 41 42 42 42 42 40 43 51 49 46 44 40 38 40 41 34 34
39 39 38 37 37 36 36 36 38 38 38 38 38 38 37 37 36 36 36 34 33 32 33 36 42 52 53 51 49 47 47 46 44
38 37 37 37 37 38 39 39 40 40 39 38 37 37 36 37 37 37 36 36 37 38 42 47 47 42 44 53 59 56 53 54 56
35 36 36 37 38 40 43 44 44 43 44 42 36 34 30 28 34 27 30 30 31 31 33 42 43 49 71 80 94 97 81 74 64
38 40 42 45 45 46 46 46 44 42 43 40 36 27 18 24 30 30 25 28 32 33 36 71 83 70 73 79 95 100 100 100 84
46 47 47 48 50 51 48 44 39 33 30 32 37 36 30 22 24 21 24 26 31 35 38 42 47 48 46 45 60 77 95 100 100
49 53 56 54 45 35 29 24 24 24 26 26 28 30 35 36 23 26 26 27 30 34 35 37 40 44 46 48 48 46 50 61 64
58 49 33 18 15 18 22 25 26 27 30 33 36 37 36 36 35 25 30 30 26 26 23 24 22 21 18 31 42 48 77 81 83

GFSFLT1_700_rhum_009.txt.gz
RH
6 6 7 7 7 7 7 9 10 10 9 10 10 8 10 11 11 11 11 11 11 11 11 11 13 15 16 16 17 17 14 11 9
6 6 6 6 6 6 7 8 8 8 8 9 10 9 10 11 12 12 12 11 11 12 12 11 11 12 14 15 16 16 17 16 12
4 5 6 6 7 7 7 8 8 9 10 10 10 10 10 11 12 12 12 12 12 12 12 12 12 12 12 13 15 16 17 17 17
8 7 7 7 7 8 8 9 10 11 11 11 11 11 11 12 12 13 13 13 13 13 13 13 13 13 12 12 13 15 16 16 17
16 13 12 12 12 13 14 14 14 14 14 14 14 13 13 12 12 13 14 14 14 14 14 14 14 14 14 14 14 14 15 16 16
22 19 18 17 18 18 18 18 19 19 19 19 18 18 18 17 16 15 16 16 16 16 15 15 15 15 15 16 16 16 16 16 16
29 27 26 27 27 28 29 30 31 31 33 32 30 28 24 21 19 18 17 19 19 19 19 19 18 17 17 17 17 17 17 18 17
36 33 30 30 30 34 35 38 39 41 46 47 49 48 48 45 44 42 39 34 35 32 24 18 17 20 22 21 20 19 19 19 19
43 40 39 40 39 41 41 45 46 47 47 49 49 51 51 48 45 43 41 41 46 49 50 48 44 33 20 17 21 24 24 24 23
45 47 46 45 44 46 47 48 45 48 47 47 45 45 45 44 45 44 42 40 41 44 47 49 50 51 48 36 31 24 20 21 24
41 46 49 53 54 52 48 44 45 45 45 38 45 42 45 47 48 46 44 43 42 43 45 46 47 48 52 52 41 36 36 34 25
40 43 48 47 44 44 46 43 40 38 36 38 39 40 40 40 39 36 34 34 33 33 33 37 41 44 45 51 53 49 44 42 41
43 45 45 43 40 36 33 32 31 34 37 36 36 37 37 37 37 37 38 36 36 36 36 35 34 34 36 39 46 55 59 56 50
45 45 39 35 35 35 35 37 38 38 39 40 39 39 37 36 33 32 33 33 33 38 34 36 37 38 40 46 50 50 47 53 61
42 35 35 36 36 37 38 41 42 42 36 28 23 20 19 18 19 22 15 23 25 28 27 29 32 29 31 37 48 73 98 88 69
33 34 35 38 41 43 42 33 26 22 20 15 12 11 9 13 15 16 16 18 22 21 21 25 30 85 95 63 85 84 89 98 100
40 43 44 44 36 28 25 19 13 11 11 10 10 8 8 11 14 13 13 13 14 16 19 22 26 28 30 32 32 38 51 64 89
40 34 30 28 25 23 16 11 11 12 13 16 19 16 13 10 13 12 13 17 20 20 21 22 25 26 26 27 27 26 30 38 48
31 28 26 23 19 20 17 14 14 15 15 14 16 18 21 24 16 20 17 17 16 13 14 15 19 22 25 24 22 16 22 29 66
26 21 15 10 11 13 14 14 15 16 16 17 20 21 20 19 16 7 6 4 4 4 3 3 3 5 14 25 26 17 19 20 17

GFSFLT1_700_rhum_015.txt.gz
RH
5 6 6 6 7 7 8 8 7 7 8 9 9 8 8 9 10 10 10 10 12 12 12 12 12 13 12 12 12 13 13 14 14
17 8 6 6 6 6 6 7 7 8 8 8 8 9 10 11 11 11 11 11 12 13 13 13 13 14 14 14 13 13 14 14 14
28 24 18 12 10 9 9 10 11 12 13 14 15 15 15 16 15 15 15 14 13 13 13 14 14 14 14 15 15 15 15 15 15
33 29 24 21 19 19 19 19 20 21 22 22 22 21 21 20 20 19 19 20 20 19 17 17 17 16 15 15 15 16 17 17 16
30 29 28 28 29 30 31 32 32 32 31 30 28 28 28 28 28 29 30 27 24 21 20 21 21 22 22 22 20 18 17 17 18
27 29 31 31 32 33 35 35 35 35 35 35 34 35 38 38 38 41 44 41 37 32 36 36 35 33 33 31 28 23 21 21 21
27 29 30 31 33 33 35 36 36 36 36 38 36 35 35 34 35 37 37 36 37 40 42 44 45 42 40 39 43 44 42 37 23
25 30 38 38 38 39 38 39 36 32 31 30 29 29 30 29 30 30 30 34 39 43 47 48 46 46 46 44 43 43 44 47 50
28 28 28 28 30 30 30 30 30 31 30 29 27 26 26 27 25 28 30 34 34 37 41 79 67 71 57 48 48 49 54 54 49
30 28 30 31 30 30 29 28 27 24 23 25 25 27 29 33 37 37 38 37 35 35 35 42 47 43 51 52 67 69 71 62 62
33 34 37 34 31 27 25 24 24 25 26 30 33 35 37 39 40 40 38 35 36 37 35 36 36 68 85 89 88 81 64 63 60
34 35 35 30 27 29 28 29 31 33 34 37 38 35 29 20 14 10 11 11 12 13 13 14 15 18 40 82 71 75 84 78 79
35 34 30 29 29 30 32 35 38 38 35 28 19 11 9 7 6 6 6 6 6 7 8 10 12 12 13 15 14 18 36 70 79
32 30 32 31 34 38 40 40 31 19 13 10 8 7 6 6 6 6 6 7 8 9 9 9 11 13 14 14 13 13 12 14 39
32 34 36 40 42 40 30 22 16 10 7 6 6 5 6 6 6 6 7 6 5 6 6 6 7 6 5 4 4 4 4 4 5
38 43 43 38 30 23 12 8 8 7 6 6 6 5 5 4 5 5 5 5 4 4 4 4 4 4 4 4 5 5 5 5 4
45 40 35 26 15 10 9 8 7 6 6 6 4 4 5 6 6 5 5 5 5 5 5 5 6 6 6 6 6 6 7 6 6
41 33 20 12 10 9 9 8 6 6 6 6 6 7 7 7 6 6 6 6 6 6 7 8 8 8 8 8 8 8 7 6 5
33 18 11 10 10 9 8 7 6 6 6 7 8 10 10 9 7 7 7 7 7 8 8 9 10 11 10 10 10 9 7 6 4
26 12 10 10 10 9 8 7 8 8 8 8 9 9 10 10 9 8 8 9 9 9 10 10 12 12 11 10 9 7 6 4 3

GFSFLT1_700_rhum_018.txt.gz
RH
16 6 5 6 6 7 7 7 7 7 8 8 8 8 8 9 9 10 10 10 11 11 11 13 13 13 13 14 14 13 13 14 15
30 22 16 9 7 7 7 8 8 9 10 10 11 12 13 14 14 14 13 13 12 12 12 12 13 13 14 14 15 15 15 15 14
33 31 25 21 18 16 16 16 16 16 17 18 18 19 20 20 20 20 20 19 18 16 16 16 15 14 14 14 15 16 16 17 16
24 28 28 26 25 25 25 27 28 29 29 29 28 28 27 27 28 28 28 25 24 22 22 21 20 20 19 19 17 16 16 16 17
18 23 25 25 25 27 27 28 29 29 29 30 30 31 30 30 33 36 36 35 34 36 35 29 29 26 23 23 23 22 21 21 20
24 26 27 26 26 26 27 29 29 30 31 30 30 30 31 31 33 35 36 36 38 37 39 40 40 38 38 37 38 37 36 29 26
28 29 30 28 29 29 30 30 30 30 31 31 30 30 29 29 30 30 32 35 34 36 38 47 44 46 47 46 42 43 43 44 47
28 28 26 29 30 30 31 31 30 29 25 22 20 19 19 19 21 22 23 22 23 24 26 36 67 74 76 75 66 52 54 62 60
26 27 29 30 30 30 30 24 20 21 22 22 24 27 29 31 33 34 34 33 35 35 33 35 36 45 63 71 73 75 79 80 82
30 30 30 32 34 30 25 24 25 26 28 31 33 36 38 37 34 28 25 21 18 18 17 16 21 27 32 37 53 66 76 88 81
35 35 35 36 33 29 27 26 28 33 36 37 38 36 28 17 10 9 9 8 8 8 9 9 10 11 12 16 24 51 65 70 81
39 37 38 34 32 28 29 35 38 38 34 25 18 15 12 10 8 7 7 6 6 6 7 8 8 8 9 9 10 21 38 58 60
38 39 36 34 30 34 40 40 35 24 16 12 11 9 7 6 6 6 6 6 6 6 7 7 7 6 6 6 7 8 8 11 21
36 35 33 35 41 42 38 28 20 10 8 7 7 6 6 6 6 6 5 5 5 5 5 5 4 4 5 5 5 4 4 4 3
36 36 41 44 42 35 28 16 9 8 8 7 7 6 6 6 5 5 6 6 6 5 5 4 4 4 4 4 4 4 4 4 4
40 46 45 42 36 23 12 9 8 8 8 7 6 6 5 5 6 7 6 6 6 6 6 5 5 5 6 6 6 6 6 6 6
48 47 43 32 17 11 10 9 9 8 8 7 6 6 6 6 7 8 8 8 7 7 7 7 7 7 7 8 8 8 9 9 9
51 46 36 22 12 11 10 9 9 8 7 7 7 6 7 7 7 8 8 8 9 8 8 8 8 8 8 9 10 10 10 11 11
49 40 28 16 12 11 10 10 9 9 8 8 8 8 8 8 8 9 9 9 9 9 9 8 8 8 8 9 10 11 13 14 12
42 34 22 15 12 11 11 10 10 9 9 9 9 9 10 11 11 10 10 10 10 10 9 9 8 8 8 9 10 13 14 13 11

GFSFLT1_700_rhum_021.txt.gz
RH
28 21 10 6 6 6 6 7 7 7 8 8 8 8 9 10 10 10 11 12 11 11 12 12 12 12 13 14 14 14 14 13 13
34 27 22 18 15 12 10 8 9 10 10 11 12 13 14 15 16 16 16 16 16 15 14 13 13 14 13 14 14 15 15 15 15
25 31 28 24 22 21 20 20 20 21 22 22 23 24 24 24 23 22 21 21 20 20 20 20 18 16 16 15 14 14 14 15 15
16 21 24 25 26 26 25 26 28 28 28 27 27 28 27 28 29 30 29 29 29 28 25 23 22 22 20 20 20 20 20 18 17
20 22 22 22 24 24 25 25 27 27 28 28 28 29 29 29 29 30 30 30 31 32 32 33 33 32 32 30 27 24 24 24 21
25 26 26 29 29 28 29 29 29 29 30 30 30 30 30 30 30 32 31 31 32 33 37 73 66 50 43 42 43 38 40 40 38
26 26 28 30 30 29 30 31 32 31 31 29 25 23 21 20 20 21 21 22 24 26 30 37 45 62 75 85 80 76 52 46 53
28 28 30 30 31 32 33 32 30 25 24 24 26 27 28 29 31 32 33 34 34 34 34 34 34 34 37 46 68 77 79 81 82
31 29 31 32 33 34 31 26 25 24 24 29 33 34 34 34 33 30 23 17 13 12 11 11 17 23 27 31 39 53 75 83 84
33 31 31 33 34 33 29 27 26 30 36 37 35 28 20 15 12 12 9 8 7 7 7 7 7 7 10 12 15 18 24 33 55
36 34 35 36 34 32 29 27 37 39 38 32 25 17 13 10 10 8 7 7 6 6 6 6 6 6 6 7 7 8 8 9 17
38 39 39 36 33 30 33 41 40 34 26 19 13 9 8 7 7 6 6 6 6 6 6 6 6 6 6 6 6 6 6 7 8
44 40 37 35 31 38 44 41 34 27 16 9 9 8 7 7 6 6 6 6 5 5 5 5 5 5 4 4 4 4 4 4 5
42 36 33 32 41 44 41 36 25 12 9 8 8 8 7 7 6 6 5 5 5 6 6 6 6 5 5 5 4 4 4 4 4
38 34 36 43 45 43 34 19 10 8 8 9 9 8 7 7 6 6 6 7 8 7 7 7 7 6 6 6 6 6 5 5 5
34 41 47 48 45 35 19 10 9 8 9 9 9 8 7 7 7 7 8 8 8 8 8 8 8 8 8 7 7 7 7 7 6
45 49 51 49 38 22 12 10 9 9 10 10 11 11 10 9 9 8 8 8 8 9 9 9 9 10 9 9 8 8 8 8 8
51 55 53 42 28 18 12 10 11 12 12 12 12 12 12 12 11 9 9 10 10 10 10 10 10 10 10 9 9 9 8 8 8
58 53 44 34 25 17 14 13 14 15 14 13 11 10 10 10 11 12 12 13 13 12 10 9 8 8 8 8 8 9 9 9 9
54 46 37 29 24 19 16 16 16 16 14 12 11 11 12 12 12 14 14 12 9 7 6 5 6 7 8 9 10 12 13 14 14

GFSFLT1_700_rhum_024.txt.gz
RH
31 26 21 14 8 6 6 7 7 7 8 8 8 9 9 9 10 11 12 13 13 13 12 12 12 12 12 13 13 14 14 14 14
32 30 24 22 19 18 16 15 14 14 15 16 17 17 18 19 20 21 20 20 19 18 18 17 15 14 13 13 13 13 14 15 15
19 28 29 28 26 25 25 25 26 27 27 29 28 26 25 24 22 21 20 20 22 22 20 19 18 18 18 19 18 17 16 15 15
18 18 19 21 21 23 24 23 25 25 24 25 24 24 25 27 27 28 28 28 29 29 30 31 30 28 26 24 22 21 20 20 19
26 26 26 27 27 28 30 30 30 29 29 31 32 31 30 30 30 31 31 33 34 34 35 64 76 74 61 50 40 35 32 31 30
28 28 30 32 32 34 33 32 32 32 31 29 28 25 24 24 24 24 24 24 25 25 32 42 44 62 78 86 87 87 79 62 43
30 29 30 32 33 36 34 33 32 28 26 25 25 25 25 26 27 29 31 32 33 34 34 33 32 32 39 61 68 79 79 85 81
31 34 33 34 34 36 36 34 28 26 25 24 28 33 35 35 34 33 31 29 25 22 19 21 28 30 35 38 53 60 57 73 81
35 36 35 36 38 37 35 30 28 25 26 35 36 34 27 19 15 12 10 11 10 8 8 8 7 7 8 11 15 21 25 35 62
42 39 36 35 35 35 32 30 26 31 38 37 28 20 15 11 9 8 8 8 7 7 6 6 6 6 6 6 6 6 7 8 14
44 40 38 38 36 34 31 27 34 39 36 29 21 12 8 8 8 7 7 7 6 6 6 6 6 6 6 5 5 6 6 6 7
44 43 44 40 36 32 28 38 40 37 32 20 9 8 8 8 8 8 7 7 6 6 5 5 5 5 5 5 5 5 5 5 4
45 46 44 38 34 32 41 42 40 32 17 10 9 8 8 9 8 8 7 6 6 5 5 6 7 7 7 7 6 6 6 6 5
51 46 41 35 35 42 43 42 34 16 9 9 9 9 9 9 9 8 7 7 6 6 7 8 8 8 8 8 8 8 8 7 7
52 43 36 38 44 45 45 37 19 10 9 9 9 10 10 10 10 9 9 8 8 8 8 8 8 8 9 9 9 9 9 9 9
47 38 41 46 48 48 40 23 13 10 10 11 12 13 13 13 13 12 11 11 10 9 9 10 10 10 11 11 11 11 10 10 9
40 44 47 51 50 38 26 18 13 12 14 17 18 18 16 14 14 13 12 11 11 12 12 12 12 12 11 10 8 8 7 7 7
45 47 51 48 38 30 22 17 14 16 18 19 19 17 16 16 15 14 13 13 13 14 14 13 11 9 7 6 6 5 5 5 5
48 50 48 42 36 29 23 18 16 18 19 20 18 16 15 15 16 17 16 16 16 14 10 8 6 5 5 5 5 5 5 5 5
50 50 50 50 46 36 28 20 18 20 20 20 18 15 14 14 15 18 17 15 10 7 5 5 5 6 6 6 6 6 6 7 8

GFSFLT1_700_rhum_030.txt.gz
RH
29 23 17 12 9 7 7 7 7 8 8 8 9 9 10 11 14 16 19 20 21 21 20 19 18 18 16 14 13 13 13 13 14
26 29 26 23 21 20 20 19 19 20 21 22 24 26 26 26 25 22 22 23 22 23 24 23 21 20 18 18 18 17 15 14 14
16 18 22 24 26 26 26 25 25 24 25 25 25 23 24 24 26 27 27 30 29 29 31 31 31 31 31 30 28 25 22 20 20
23 22 22 22 23 25 26 26 27 27 27 28 30 29 29 29 29 29 28 29 29 40 60 50 75 83 85 85 78 77 68 46 36
25 26 28 29 30 30 30 30 30 30 33 31 31 30 26 23 22 22 21 21 21 22 24 24 41 61 63 83 92 91 89 91 86
31 29 30 31 31 31 31 32 32 33 33 28 25 24 24 24 24 26 29 31 30 31 33 33 32 31 31 42 67 64 82 81 88
38 36 32 33 32 32 31 33 35 35 31 28 27 25 27 32 34 33 32 27 22 20 22 22 26 29 31 33 34 35 38 48 70
41 41 39 35 35 33 34 35 36 33 31 27 28 35 37 34 27 20 16 13 10 9 8 8 9 9 9 8 9 12 16 23 33
43 43 43 40 37 35 35 37 34 32 28 30 36 37 33 28 19 10 8 8 8 8 7 7 7 7 6 6 6 6 7 7 8
47 46 45 43 40 36 37 36 34 29 33 38 38 35 26 14 9 8 8 8 8 8 8 8 7 7 6 6 6 5 5 5 5
49 48 48 45 42 41 38 35 30 32 38 38 35 22 10 8 8 8 9 9 10 10 9 9 8 8 7 7 6 6 6 7 6
48 50 48 46 45 41 37 31 35 39 40 37 25 12 9 9 9 9 10 11 12 12 12 12 12 11 10 9 8 8 8 8 8
47 49 43 47 47 41 34 36 40 40 38 26 13 10 10 10 12 14 15 16 16 15 14 14 13 12 12 11 10 10 9 8 8
52 47 47 50 44 36 39 42 42 36 24 17 13 12 12 15 17 18 17 16 16 15 15 15 14 14 13 12 12 11 10 10 11
77 95 58 52 40 40 44 45 34 26 21 17 14 14 16 18 19 19 18 17 17 16 16 15 15 14 14 14 13 13 13 14 14
99 98 85 56 38 45 46 36 30 27 22 19 16 16 18 19 20 19 19 18 17 17 17 17 17 16 16 16 16 15 14 12 9
100 98 94 44 46 49 42 45 46 42 34 25 16 16 17 20 21 21 20 19 18 18 18 18 18 17 17 15 12 8 6 6 6
90 69 94 47 51 48 51 51 50 50 50 38 18 14 14 18 20 21 20 19 19 19 18 17 16 13 10 7 6 6 6 7 8
100 69 57 51 52 53 51 51 51 51 52 49 24 14 16 18 18 19 20 20 20 20 17 13 9 7 6 6 7 8 9 10 10
61 60 49 53 53 54 55 56 56 55 54 52 34 20 18 20 21 22 21 21 20 19 14 9 7 7 8 9 10 11 11 11 9

GFSFLT1_700_rhum_033.txt.gz
RH
29 26 19 11 8 7 7 7 8 8 8 8 9 8 9 10 12 16 19 21 22 22 21 20 20 19 19 18 16 14 13 13 13
17 26 26 23 21 21 20 21 21 22 22 23 24 25 25 24 23 22 21 20 21 21 22 23 23 23 22 20 20 19 18 17 15
18 16 17 21 22 22 22 21 21 22 22 21 22 22 24 25 25 27 28 28 28 28 29 28 33 42 47 34 35 34 32 28 24
22 23 23 23 24 25 26 26 26 27 28 28 28 29 29 29 28 26 23 22 22 22 23 24 34 45 67 86 90 88 89 86 79
27 25 26 27 27 28 27 28 29 30 30 30 29 27 23 22 22 22 23 22 22 24 23 24 23 24 37 62 75 84 89 88 93
35 33 30 28 29 29 29 30 30 32 32 30 27 26 25 24 24 24 30 31 30 30 30 30 31 32 32 31 31 42 56 69 81
39 38 37 34 31 32 31 31 33 33 32 31 29 27 25 28 33 32 31 26 19 14 10 10 10 10 11 11 15 20 23 29 34
42 41 40 39 37 33 34 34 35 35 32 31 28 28 32 36 32 28 24 17 10 7 6 8 8 8 8 7 7 8 8 8 8
45 44 43 42 41 38 36 36 36 35 32 28 28 33 35 34 31 25 12 8 8 8 8 8 8 8 8 7 7 7 6 6 6
47 46 46 45 44 42 40 37 36 34 30 29 36 36 34 28 16 11 8 8 8 9 9 10 9 9 9 8 8 7 7 6 5
48 48 46 46 46 44 42 39 36 31 30 35 37 36 28 15 9 9 9 9 10 11 12 13 13 13 13 13 12 10 9 9 8
50 50 47 48 45 40 41 38 33 29 36 36 36 27 14 10 10 10 12 14 15 16 16 15 15 14 14 14 14 13 13 12 11
47 48 43 48 42 41 40 36 32 38 37 31 21 15 12 11 12 15 17 18 18 17 16 16 16 16 15 15 14 14 14 14 13
47 46 46 47 42 43 40 34 39 40 29 22 16 13 12 12 14 16 19 19 18 18 18 18 17 17 16 16 16 16 16 16 16
48 52 53 56 51 46 36 38 42 33 30 31 27 20 15 13 14 17 20 20 20 20 19 19 19 18 18 18 18 18 18 18 17
58 76 89 97 86 53 39 43 37 42 44 43 42 36 23 14 14 17 19 20 21 21 20 20 19 19 19 19 19 19 17 15 12
99 87 99 100 96 56 45 43 45 44 42 41 40 44 38 28 16 14 16 18 19 20 20 20 20 20 20 19 17 14 11 8 6
81 95 100 96 88 48 48 48 47 45 47 48 50 48 42 38 28 20 18 18 19 20 21 20 20 19 17 14 10 8 7 7 7
85 91 94 93 95 51 51 51 52 54 55 54 55 55 51 42 36 28 22 21 22 22 21 20 17 13 10 8 8 9 10 11 12
96 87 98 79 53 54 54 55 59 62 62 60 59 58 55 46 34 25 22 22 22 21 21 18 14 10 9 10 11 13 13 12 10

GFSFLT1_700_rhum_036.txt.gz
RH
17 26 26 20 14 9 7 7 7 8 8 8 9 9 12 13 15 17 20 22 22 22 21 20 18 18 17 17 18 17 16 15 14
15 16 24 26 25 23 23 22 23 24 24 24 24 24 22 21 19 18 18 19 19 22 23 23 24 23 24 24 25 24 21 19 19
20 18 16 16 16 17 17 18 18 20 22 23 23 24 26 25 24 24 25 25 24 24 24 25 26 28 34 47 78 66 61 51 58
24 22 22 23 24 24 24 25 25 26 27 26 28 28 28 26 23 20 20 20 20 20 20 20 19 19 23 40 73 86 88 89 89
32 30 26 24 25 25 26 26 27 27 27 28 28 26 24 23 22 23 22 21 21 24 26 27 27 27 27 26 31 41 64 75 86
37 36 35 32 29 27 28 28 29 29 29 29 29 28 27 25 23 23 27 28 29 27 23 18 13 11 12 18 25 28 29 33 43
40 39 38 38 36 33 30 30 31 30 31 30 30 28 26 24 24 29 31 28 25 20 13 8 7 7 7 7 8 8 8 9 12
42 41 40 38 39 39 34 32 31 32 32 31 30 27 26 26 28 30 31 27 21 14 8 8 8 8 8 8 8 7 7 7 7
45 44 42 40 40 41 39 33 33 33 33 32 28 27 30 32 30 29 22 14 10 8 8 9 9 9 9 9 9 8 8 8 7
47 47 46 44 40 41 41 36 35 35 33 30 28 32 31 32 29 24 11 9 9 9 9 10 11 12 13 14 14 13 13 12 11
48 47 47 48 44 41 42 37 36 36 33 27 31 32 32 27 20 13 10 10 11 12 14 16 16 16 15 15 14 14 14 14 14
50 48 46 47 45 43 43 37 37 36 30 30 33 29 20 15 12 11 11 14 16 18 18 17 16 16 16 16 16 15 15 14 14
53 53 51 48 46 45 42 38 37 34 32 34 28 21 16 13 11 12 13 15 18 19 19 18 18 18 18 18 18 17 17 16 16
55 53 52 50 49 47 42 41 37 33 36 31 28 31 30 25 18 13 12 14 17 18 20 20 20 20 20 20 19 18 18 18 17
61 57 55 53 56 58 51 45 37 36 36 36 36 34 35 35 35 30 18 13 14 17 19 20 21 21 20 20 19 19 19 19 19
65 68 62 63 65 75 95 63 40 40 39 39 37 36 39 39 38 34 30 26 20 16 16 17 18 19 20 20 20 20 19 19 17
67 68 70 85 90 99 99 91 44 42 42 41 44 44 44 46 46 45 42 38 32 26 22 21 21 22 21 21 20 19 18 15 11
66 66 81 87 92 95 91 74 47 45 46 49 52 52 52 52 53 52 49 43 34 24 22 22 22 22 21 20 17 14 11 9 9
62 68 84 94 97 94 86 58 48 47 50 56 59 58 56 56 56 56 52 43 28 23 23 22 22 20 17 13 11 10 11 12 13
62 77 77 90 99 94 83 58 52 52 58 62 61 59 57 58 59 57 55 40 23 23 23 22 20 16 12 11 12 14 14 13 11

GFSFLT1_700_rhum_039.txt.gz
RH
12 15 25 26 20 14 10 9 9 9 9 10 11 13 16 19 20 23 22 22 21 19 17 16 17 17 17 17 17 17 18 17 16
17 14 13 20 26 26 25 25 24 24 23 22 20 18 17 16 15 17 18 20 21 22 23 23 24 24 25 26 27 29 29 27 25
20 19 19 18 17 16 17 17 19 20 21 22 23 23 23 22 23 23 22 21 21 20 19 20 19 20 25 29 56 80 80 76 63
29 26 23 22 22 22 22 23 23 24 24 24 25 26 25 23 22 22 21 21 21 21 21 22 23 24 24 23 26 42 62 68 74
32 32 31 29 26 24 25 25 25 25 26 26 27 27 25 24 24 24 22 22 23 24 27 26 24 22 21 24 26 29 29 39 52
36 35 34 33 34 31 28 26 26 26 27 26 28 27 26 25 24 23 24 26 26 26 24 19 14 10 8 7 7 8 11 16 24
41 39 37 35 36 35 34 31 29 28 29 29 30 28 27 25 25 28 29 28 27 26 20 13 8 7 7 8 8 8 8 8 8
45 45 44 41 39 36 35 35 32 30 30 29 30 29 25 25 28 29 30 28 24 18 11 9 8 8 9 9 9 8 8 8 8
46 47 47 47 44 39 37 37 35 32 31 31 31 28 25 29 30 30 28 22 14 9 8 9 9 10 10 11 11 12 12 12 11
47 48 49 49 49 46 40 37 37 33 32 33 32 27 27 29 28 24 18 12 10 10 10 10 12 13 15 15 15 15 15 14 14
47 47 47 47 46 45 44 39 39 35 34 33 30 28 29 26 19 14 12 11 11 12 14 17 17 17 16 16 16 16 16 15 15
48 49 49 49 49 46 44 41 41 37 36 34 30 31 27 22 17 13 11 12 13 15 17 19 19 18 18 18 18 18 18 18 17
52 52 51 48 47 48 46 44 42 39 36 33 31 31 28 30 30 28 22 15 12 13 16 18 20 20 20 20 20 20 20 20 19
52 51 53 52 50 50 50 48 46 41 38 35 34 33 33 31 30 31 31 31 27 18 14 15 16 18 19 20 20 20 20 19 19
48 53 60 58 62 55 58 57 56 46 38 38 37 36 34 37 38 40 41 39 36 33 29 24 20 17 16 17 18 18 19 20 20
50 52 59 62 64 64 67 65 90 91 47 42 40 38 41 45 47 48 49 48 46 45 41 37 31 26 23 22 22 22 21 20 19
54 60 64 62 61 73 88 94 92 96 70 44 43 44 48 50 49 48 48 50 50 49 47 38 28 23 22 22 22 21 20 19 18
61 62 69 67 67 84 99 90 96 88 56 46 46 50 52 52 50 49 49 50 53 53 49 33 24 23 23 22 21 19 17 14 12
63 65 71 73 72 85 100 99 89 81 52 51 50 58 59 57 54 52 52 54 56 55 47 27 24 23 22 20 16 13 12 12 13
66 61 62 74 78 83 95 98 88 86 63 52 53 61 60 59 58 55 57 58 60 55 34 24 23 21 18 14 13 14 15 16 15

GFSFLT1_700_rhum_045.txt.gz
RH
15 12 16 24 24 21 17 14 12 13 15 18 20 22 24 23 21 19 18 18 17 17 18 20 22 24 26 28 28 26 26 25 21
21 17 15 14 17 23 25 25 24 22 19 17 16 18 20 22 21 22 23 22 21 21 21 21 21 25 36 53 51 63 79 80 63
28 25 21 19 19 19 19 20 20 21 21 21 22 22 22 23 22 22 21 21 21 22 22 23 23 23 27 28 30 49 65 74 76
31 29 28 27 24 22 22 23 23 23 23 23 23 24 24 24 24 24 23 24 22 22 24 26 27 27 26 26 27 28 32 48 63
37 33 30 29 28 28 27 26 26 26 26 25 25 25 26 26 26 24 24 23 23 26 26 27 26 24 21 16 14 12 12 16 25
43 44 41 37 35 33 32 31 30 28 27 27 28 28 29 29 26 24 24 25 26 28 27 26 24 20 14 10 8 8 8 9 9
44 46 46 45 45 42 39 36 35 34 32 30 29 29 30 29 26 26 27 26 27 27 24 20 15 12 10 9 9 9 9 8 8
44 45 47 48 49 50 47 44 41 39 37 34 31 30 31 29 27 28 28 26 24 21 18 13 10 9 9 9 10 10 10 10 10
46 47 48 48 50 51 50 48 47 44 41 38 35 32 31 29 28 29 26 21 17 14 12 11 11 11 11 12 13 14 14 15 15
46 48 49 49 50 50 49 48 47 45 43 41 39 36 33 31 30 28 23 20 16 13 12 12 13 15 16 18 18 18 17 16 16
47 49 51 50 49 50 50 50 49 47 45 44 42 39 36 33 31 28 27 28 26 24 20 15 13 14 15 17 19 19 19 18 18
51 51 51 50 51 52 52 50 48 43 42 45 47 44 39 35 32 32 33 31 30 29 29 29 27 24 20 17 15 15 17 19 20
52 51 51 54 55 56 55 53 47 47 51 51 50 47 41 37 35 35 33 35 38 40 41 41 42 42 40 37 34 32 29 25 19
52 53 56 57 55 56 58 55 55 60 58 59 55 49 42 39 38 36 39 42 44 46 45 46 45 45 45 45 44 42 38 35 32
55 57 57 56 53 57 63 60 60 64 65 67 78 79 67 44 41 42 45 47 48 48 47 46 46 47 46 46 46 45 40 33 28
60 60 57 54 57 60 66 65 66 72 76 82 84 88 84 59 45 47 52 53 51 49 47 47 47 48 50 50 48 46 41 32 25
66 63 60 61 62 61 63 74 72 73 92 95 99 94 85 72 52 51 54 57 55 52 50 49 49 49 50 52 52 48 40 28 23
64 68 69 67 65 63 68 80 78 74 81 77 96 92 91 66 54 53 57 60 59 56 54 52 51 51 52 52 53 51 40 26 22
64 70 82 75 70 68 75 80 75 79 89 86 99 86 94 83 80 62 58 63 63 59 57 56 55 55 56 56 55 50 36 24 21
62 63 81 79 77 77 76 75 76 82 93 96 100 100 99 96 99 70 62 64 65 63 62 60 60 60 61 61 58 45 26 22 18

GFSFLT1_700_rhum_048.txt.gz
RH
20 15 13 20 24 21 17 15 16 19 22 23 24 24 22 20 18 17 18 19 19 19 22 22 26 30 24 24 24 26 29 30 27
26 21 17 15 14 17 20 21 20 18 18 21 22 23 23 24 24 24 22 22 21 20 20 21 21 24 28 28 40 86 81 80 80
29 27 25 22 20 19 20 20 21 21 22 23 23 23 24 23 23 23 23 23 23 23 24 23 23 26 26 26 26 30 43 56 72
36 31 28 27 26 25 24 23 23 23 23 24 25 24 24 24 24 24 24 23 23 23 25 25 26 25 24 22 19 18 24 31 48
41 42 40 36 32 30 28 28 27 27 26 26 26 25 25 26 25 24 23 22 25 26 27 26 26 26 24 20 16 11 10 11 13
43 45 46 46 44 42 40 37 35 33 31 29 28 27 27 27 27 25 24 24 27 28 26 25 23 19 16 14 11 9 9 8 8
44 44 46 47 48 49 50 48 45 41 38 36 33 30 29 28 28 25 24 24 26 25 23 21 18 14 11 9 9 9 9 9 9
46 45 46 48 48 50 51 51 49 47 45 41 39 36 33 31 29 27 25 25 24 20 16 13 12 11 11 11 11 11 11 12 12
46 47 48 48 49 51 52 51 50 48 47 45 43 41 38 34 32 29 27 25 23 20 16 14 12 12 13 14 16 17 17 17 17
47 47 48 50 50 51 52 50 50 50 48 47 46 44 42 38 35 32 29 27 27 27 25 23 20 17 14 13 14 17 18 19 18
50 49 49 51 52 51 51 52 52 50 48 47 46 47 46 42 38 34 31 31 31 30 29 28 28 28 28 27 25 21 17 16 16
52 51 51 54 53 52 54 55 55 53 49 46 45 49 49 45 40 36 34 34 32 33 36 38 40 41 41 41 41 40 39 36 33
54 53 54 57 54 53 56 58 58 54 52 56 54 54 53 48 42 38 36 35 37 40 42 44 44 43 43 42 42 41 41 42 41
56 56 57 56 53 57 58 56 57 58 57 58 58 60 58 57 50 42 40 40 43 46 47 46 46 45 44 44 45 45 45 43 42
56 56 57 55 58 60 57 57 58 61 60 57 64 68 76 79 81 59 44 45 48 51 51 50 48 46 45 46 46 47 48 48 46
57 56 60 61 62 62 62 60 57 67 65 60 72 80 83 86 86 77 52 48 51 53 54 53 51 50 50 50 50 50 50 51 50
58 62 68 70 64 62 66 64 65 75 73 66 79 78 82 87 90 82 64 53 53 58 59 59 56 55 54 53 53 52 52 52 52
62 66 72 75 70 67 70 71 74 81 83 81 82 78 75 86 82 83 66 67 60 58 60 61 61 58 56 54 54 54 54 54 53
62 63 72 80 80 76 76 81 84 99 96 98 94 94 95 97 98 90 90 87 87 67 59 62 63 61 59 58 56 54 54 55 56
71 76 72 74 77 78 82 87 96 96 98 98 94 97 100 98 87 98 97 97 93 76 67 65 66 64 62 61 59 59 59 59 57

GFSFLT1_700_rhum_051.txt.gz
RH
21 17 15 18 23 24 23 22 23 24 25 24 24 22 20 18 18 19 20 21 22 21 21 29 29 24 22 26 26 27 32 45 38
27 24 20 18 16 16 17 17 17 18 19 19 20 21 22 22 22 22 21 21 21 22 22 21 22 22 23 24 33 68 77 69 78
32 28 26 24 22 21 21 21 22 22 22 22 22 22 22 22 23 23 23 23 23 22 22 22 23 24 24 25 26 28 36 40 60
39 38 33 30 27 26 26 25 25 25 25 24 24 24 23 24 24 24 23 23 22 23 23 24 26 27 26 25 23 19 18 19 25
42 41 44 45 42 39 36 34 32 31 29 27 26 25 24 24 24 24 22 23 25 25 25 26 26 24 22 19 17 13 10 9 9
44 44 45 44 44 45 48 47 44 41 39 36 34 31 29 27 25 24 23 25 26 25 24 23 22 18 15 12 10 10 9 9 9
45 44 45 46 47 47 47 47 49 48 46 43 40 38 35 32 30 27 25 25 26 24 21 18 15 13 12 10 10 10 10 10 10
46 46 46 47 48 49 50 50 50 49 48 47 44 42 40 37 34 31 29 26 25 23 20 17 15 13 12 12 13 14 15 15 15
47 47 47 48 48 49 51 52 51 50 50 49 47 46 45 43 39 36 32 29 26 24 24 23 21 18 15 13 14 15 17 18 18
48 48 48 48 49 50 51 52 51 51 51 50 48 47 46 46 44 40 36 32 29 30 30 29 28 27 27 26 25 23 21 18 16
50 50 49 50 50 51 52 53 52 52 52 51 49 45 44 45 47 43 38 34 32 31 31 32 35 36 38 39 39 39 39 38 37
54 53 52 52 52 53 55 54 54 55 56 53 46 47 51 50 49 46 40 36 35 33 35 38 40 41 40 41 41 42 42 41 40
55 53 54 55 54 56 56 54 56 59 57 51 52 57 55 54 51 47 43 40 37 37 40 44 45 44 44 43 42 41 42 43 44
50 54 57 57 56 58 57 55 60 61 59 58 59 58 57 58 61 67 65 50 41 41 44 47 48 47 46 45 44 44 44 45 45
51 52 58 59 56 56 55 58 63 64 60 63 65 59 61 65 69 76 78 67 49 46 49 52 53 53 51 49 48 47 47 48 48
55 55 59 59 56 57 60 65 66 66 64 69 71 67 64 73 79 83 82 79 69 53 52 55 58 59 58 55 52 50 50 50 50
62 57 58 64 60 59 64 68 68 72 70 74 84 76 72 73 77 88 84 82 70 57 54 56 59 63 64 61 58 55 54 53 52
57 68 68 65 65 64 70 72 72 75 76 83 94 90 84 83 83 85 86 83 83 76 81 83 73 62 62 63 62 59 56 55 53
64 64 66 73 72 70 71 76 83 83 81 84 93 92 94 97 98 95 91 88 93 90 90 92 86 74 64 61 62 61 60 58 57
76 69 66 60 64 69 74 80 82 86 86 86 92 99 98 98 94 85 95 93 90 93 96 97 89 80 73 68 65 64 62 61 61

GFSFLT1_700_rhum_054.txt.gz
RH
22 18 16 17 22 22 21 22 24 25 25 24 23 20 18 17 18 19 20 19 22 20 30 80 23 25 28 38 44 46 50 54 58
27 24 21 18 17 17 18 19 19 20 20 21 21 21 21 21 21 20 21 21 22 24 23 24 23 26 26 29 37 56 68 66 76
32 28 26 25 23 22 22 23 23 23 23 22 22 22 22 22 22 23 23 24 23 23 23 26 26 26 26 26 26 28 36 50 52
39 41 38 33 30 28 27 26 26 26 25 25 24 24 24 24 24 23 23 23 23 24 25 27 28 26 26 25 24 22 21 21 26
42 42 41 44 44 44 41 38 36 35 33 31 29 27 26 26 25 24 24 24 24 24 26 27 25 24 21 19 16 14 12 10 10
44 44 44 44 44 44 44 46 47 45 43 40 38 35 33 31 29 27 25 25 24 24 24 22 20 18 16 13 11 10 9 9 9
45 44 45 46 46 46 47 47 45 46 46 46 45 42 40 38 35 33 30 28 26 24 22 19 16 14 12 12 11 11 11 11 11
46 46 46 46 47 48 49 50 50 49 49 48 48 47 46 44 43 40 36 31 28 26 24 22 20 17 15 13 13 15 16 17 18
47 47 47 47 47 48 49 50 52 52 50 50 50 49 48 47 45 43 41 37 32 28 28 28 27 26 24 22 20 18 16 16 16
48 47 47 47 48 48 49 50 52 53 51 51 51 50 48 46 45 44 43 40 35 32 31 30 29 30 31 32 34 35 36 36 35
49 48 48 48 49 49 50 51 52 53 52 53 53 52 47 44 45 47 46 42 38 34 33 32 34 37 39 39 39 39 39 39 39
52 50 50 51 51 51 50 51 53 53 54 55 56 52 48 50 53 50 47 44 40 37 34 36 39 41 42 42 42 42 41 40 40
55 54 53 54 53 53 52 53 55 54 55 58 58 52 52 54 54 51 49 47 45 41 38 39 42 46 45 45 44 42 41 42 42
58 54 50 53 55 55 55 56 57 56 56 60 59 56 57 57 56 54 58 64 65 56 43 42 44 47 48 48 47 46 45 44 44
52 52 53 54 56 56 56 57 59 59 60 62 61 60 60 61 59 61 66 71 72 70 56 46 46 51 53 54 53 52 50 48 47
58 57 57 57 56 56 59 60 60 61 63 67 64 64 65 66 63 68 74 80 82 80 75 64 53 52 53 56 57 58 57 55 52
61 61 59 61 60 58 59 59 59 62 66 71 70 72 69 69 70 73 76 78 84 80 77 62 57 64 72 68 60 57 60 59 57
50 50 56 58 68 66 62 62 62 65 72 73 79 77 72 73 79 77 76 77 81 86 85 83 78 81 82 84 81 68 61 58 58
56 61 62 59 64 71 74 66 69 72 74 80 80 80 79 81 83 84 96 90 90 90 88 89 91 91 86 90 88 78 72 65 64
67 76 82 71 66 64 64 74 76 74 76 78 83 87 86 87 84 86 88 98 99 98 96 99 98 95 89 91 86 76 73 74 76